GW1885 Weather Reports


Display with metric or nautical units.
time (UTC)temp
F
wind
direction
speed
MPH
gust
MPH
rain 1hr
in
rain 24hr
in
rain mn
in
humidity
%
barometer
mb
20240520070504 68 61 0.0 2.0 0.00 0.18 0.00 84 1013.0
20240520070025 68 56 0.0 2.0 0.00 0.18 0.00 87 1013.1
20240520065504 67 115 0.0 2.0 0.00 0.18 0.00 90 1013.1
20240520065004 65 135 0.0 1.0 0.00 0.18 0.00 91 1012.9
20240520064504 65 113 0.0 1.0 0.00 0.18 0.00 92 1013.0
20240520064004 65 119 0.0 2.0 0.00 0.18 0.00 94 1012.9
20240520063504 64 137 0.0 2.0 0.00 0.18 0.00 96 1012.9
20240520063004 64 135 0.0 2.0 0.00 0.18 0.00 97 1013.0
20240520062525 64 138 0.0 2.0 0.00 0.18 0.00 98 1012.9
20240520062004 63 154 1.0 2.0 0.00 0.18 0.00 99 1012.8
20240520061505 63 158 0.0 2.0 0.00 0.18 0.00 99 1012.9
20240520061005 63 163 0.0 2.0 0.00 0.18 0.00 99 1012.7
20240520060526 63 179 0.0 2.0 0.00 0.18 0.00 99 1012.7
20240520060004 63 167 1.0 2.0 0.00 0.18 0.00 99 1012.5
20240520055504 62 158 1.0 2.0 0.00 0.18 0.00 99 1012.5
20240520055025 64 150 0.0 2.0 0.00 0.18 0.00 99 1012.6
20240520054504 64 158 0.0 2.0 0.00 0.18 0.00 99 1012.6
20240520054004 63 165 0.0 2.0 0.00 0.18 0.00 99 1012.6
20240520053504 63 153 0.0 2.0 0.00 0.18 0.00 99 1012.7
20240520053004 62 0 0.0 0.0 0.00 0.18 0.00 99 1012.5
20240520052504 61 180 0.0 1.0 0.00 0.18 0.00 99 1012.3
20240520052007 61 165 0.0 1.0 0.00 0.18 0.00 99 1012.6
20240520051505 60 153 0.0 1.0 0.00 0.18 0.00 99 1012.4
20240520051025 59 0 0.0 0.0 0.00 0.18 0.00 99 1012.2
20240520050505 59 0 0.0 0.0 0.00 0.18 0.00 99 1012.3
20240520050005 58 0 0.0 0.0 0.00 0.18 0.00 99 1012.1
20240520045526 58 360 0.0 1.0 0.00 0.18 0.00 99 1012.3
20240520045025 57 360 0.0 1.0 0.00 0.18 0.00 99 1012.3
20240520044505 57 0 0.0 0.0 0.00 0.18 0.00 99 1012.1
20240520044004 57 0 0.0 0.0 0.00 0.18 0.00 99 1012.3
20240520043525 57 0 0.0 0.0 0.00 0.18 0.00 99 1012.2
20240520043004 57 0 0.0 0.0 0.00 0.18 0.00 99 1012.3
20240520042526 57 0 0.0 0.0 0.00 0.18 0.00 99 1012.3
20240520042026 56 0 0.0 0.0 0.00 0.18 0.00 99 1012.4
20240520041504 56 0 0.0 0.0 0.00 0.18 0.00 99 1012.2
20240520041025 56 0 0.0 0.0 0.00 0.18 0.00 99 1012.4
20240520040505 55 0 0.0 0.0 0.00 0.18 0.00 99 1012.2
20240520040004 55 0 0.0 0.0 0.00 0.18 0.00 99 1012.2
20240520035504 55 0 0.0 0.0 0.00 0.18 0.00 99 1012.0
20240520035005 55 0 0.0 0.0 0.00 0.18 0.00 99 1012.2
20240520034525 55 0 0.0 0.0 0.00 0.18 0.00 99 1012.1
20240520034004 54 0 0.0 0.0 0.00 0.18 0.00 99 1012.2
20240520033504 54 0 0.0 0.0 0.00 0.18 0.00 99 1012.3
20240520033005 54 0 0.0 0.0 0.00 0.18 0.00 99 1012.1
20240520032504 54 0 0.0 0.0 0.00 0.18 0.00 99 1012.0
20240520032026 54 90 0.0 1.0 0.00 0.18 0.00 99 1011.9
20240520031504 54 90 0.0 1.0 0.00 0.18 0.00 99 1012.1
20240520031004 54 90 0.0 1.0 0.00 0.18 0.00 99 1012.0
20240520030505 54 0 0.0 0.0 0.00 0.18 0.00 99 1012.1
20240520030004 54 0 0.0 0.0 0.00 0.18 0.00 99 1011.8
20240520025504 54 360 0.0 1.0 0.00 0.18 0.00 99 1011.7
20240520025004 54 360 0.0 1.0 0.00 0.18 0.00 99 1012.0
20240520024505 54 63 0.0 1.0 0.00 0.18 0.00 99 1011.9
20240520024004 54 101 0.0 1.0 0.00 0.18 0.00 99 1011.9
20240520023504 54 146 0.0 1.0 0.00 0.18 0.00 99 1011.8
20240520023005 54 153 0.0 1.0 0.00 0.18 0.00 99 1011.8
20240520022504 54 180 0.0 1.0 0.00 0.18 0.00 99 1011.8
20240520022004 54 195 0.0 1.0 0.00 0.18 0.00 99 1012.1
20240520021504 53 166 0.0 1.0 0.00 0.18 0.00 99 1011.8
20240520021025 54 135 0.0 1.0 0.00 0.18 0.00 99 1011.9
20240520020504 54 139 0.0 1.0 0.00 0.18 0.00 99 1011.8
20240520020005 54 144 0.0 1.0 0.00 0.18 0.00 99 1011.8
20240520015504 54 135 0.0 1.0 0.00 0.18 0.00 99 1012.0
20240520015026 54 135 0.0 1.0 0.00 0.18 0.00 99 1011.6
20240520014505 54 135 0.0 1.0 0.00 0.18 0.00 99 1011.7
20240520014026 54 135 0.0 1.0 0.00 0.18 0.00 99 1011.7
20240520013504 54 0 0.0 0.0 0.00 0.18 0.00 99 1011.8
20240520013025 54 360 0.0 1.0 0.00 0.18 0.00 99 1011.5
20240520012505 54 360 0.0 1.0 0.00 0.18 0.00 99 1011.8
20240520012004 54 0 0.0 0.0 0.00 0.18 0.00 99 1011.8
20240520011504 54 180 0.0 1.0 0.00 0.18 0.00 99 1011.6
20240520011004 54 171 0.0 1.0 0.00 0.18 0.00 99 1011.8
20240520010504 54 180 0.0 1.0 0.00 0.18 0.00 99 1011.7
20240520010026 54 45 0.0 1.0 0.00 0.18 0.00 99 1011.7
20240520005504 54 45 0.0 1.0 0.00 0.18 0.00 99 1011.6
20240520005005 54 45 0.0 1.0 0.00 0.18 0.00 99 1011.5
20240520004505 54 0 0.0 0.0 0.00 0.18 0.00 99 1011.6
20240520004004 54 0 0.0 0.0 0.00 0.18 0.00 99 1011.6
20240520003526 54 0 0.0 0.0 0.00 0.18 0.00 99 1011.9
20240520003003 54 135 0.0 1.0 0.00 0.18 0.00 99 1011.7
20240520002525 54 151 0.0 1.0 0.00 0.18 0.00 99 1011.7
20240520002005 54 152 0.0 1.0 0.00 0.18 0.00 99 1011.7
20240520001504 55 180 0.0 1.0 0.00 0.18 0.00 99 1011.8
20240520001004 55 225 0.0 1.0 0.00 0.18 0.00 99 1011.5
20240520000504 55 0 0.0 0.0 0.00 0.18 0.00 99 1011.5
20240520000004 55 360 0.0 1.0 0.00 0.18 0.00 99 1011.5
20240519235504 55 345 0.0 1.0 0.00 0.18 0.00 99 1011.5
20240519235003 55 315 0.0 1.0 0.00 0.18 0.00 99 1011.6
20240519234503 55 0 0.0 0.0 0.00 0.18 0.00 99 1011.5
20240519234003 55 0 0.0 0.0 0.00 0.18 0.00 99 1011.7
20240519233504 55 0 0.0 0.0 0.00 0.18 0.00 99 1011.5
20240519233004 55 315 0.0 1.0 0.00 0.18 0.00 98 1011.5
20240519232526 55 291 0.0 2.0 0.00 0.18 0.00 98 1011.5
20240519232026 54 282 0.0 2.0 0.00 0.18 0.00 98 1011.5
20240519231504 54 0 0.0 0.0 0.00 0.18 0.00 99 1011.5
20240519231004 54 0 0.0 0.0 0.00 0.18 0.00 99 1011.6
20240519230504 54 0 0.0 0.0 0.00 0.18 0.00 99 1011.5
20240519230003 54 0 0.0 0.0 0.00 0.18 0.00 99 1011.5
20240519225505 54 0 0.0 0.0 0.00 0.18 0.00 99 1011.6
20240519225003 54 0 0.0 0.0 0.00 0.18 0.00 99 1011.5
20240519224504 54 0 0.0 0.0 0.00 0.18 0.00 99 1011.7
20240519224026 54 0 0.0 0.0 0.00 0.18 0.00 99 1011.5
20240519223504 54 180 0.0 1.0 0.00 0.18 0.00 99 1011.5
20240519223004 54 180 0.0 1.0 0.00 0.18 0.00 99 1011.5
20240519222504 54 0 0.0 0.0 0.00 0.18 0.00 99 1011.5
20240519222025 54 0 0.0 0.0 0.00 0.18 0.00 99 1011.3
20240519221504 54 0 0.0 0.0 0.00 0.18 0.00 99 1011.7
20240519221004 54 0 0.0 0.0 0.00 0.18 0.00 99 1011.4
20240519220503 54 262 0.0 1.0 0.00 0.18 0.00 96 1011.5
20240519220026 54 265 0.0 1.0 0.00 0.18 0.00 96 1011.5
20240519215503 54 284 0.0 2.0 0.00 0.18 0.18 96 1011.5
20240519215004 54 295 0.0 2.0 0.00 0.18 0.18 99 1011.6
20240519214505 54 332 0.0 2.0 0.00 0.18 0.18 99 1011.4
20240519214005 54 338 0.0 2.0 0.00 0.18 0.18 99 1011.4
20240519213503 54 360 0.0 1.0 0.00 0.18 0.18 98 1011.5
20240519213004 54 0 0.0 0.0 0.00 0.18 0.18 98 1011.3
20240519212504 54 0 0.0 0.0 0.00 0.18 0.18 98 1011.4
20240519212004 55 0 0.0 0.0 0.00 0.18 0.18 96 1011.4
20240519211504 55 360 0.0 1.0 0.00 0.18 0.18 96 1011.4
20240519211024 55 351 0.0 2.0 0.00 0.18 0.18 96 1011.3
20240519210504 56 332 0.0 2.0 0.00 0.18 0.18 96 1011.2
20240519210005 56 18 0.0 2.0 0.00 0.18 0.18 96 1011.2
20240519205503 56 78 0.0 2.0 0.00 0.18 0.18 96 1011.2
20240519205025 56 102 0.0 2.0 0.00 0.18 0.18 95 1011.1
20240519204504 56 0 0.0 0.0 0.00 0.18 0.18 95 1011.2
20240519204005 56 0 0.0 0.0 0.00 0.18 0.18 95 1011.2
20240519203505 56 0 0.0 0.0 0.00 0.18 0.18 95 1011.2
20240519203003 56 0 0.0 0.0 0.00 0.18 0.18 95 1011.2
20240519202503 56 0 0.0 0.0 0.00 0.18 0.18 95 1011.1
20240519202004 56 0 0.0 0.0 0.00 0.18 0.18 94 1011.2
20240519201505 56 0 0.0 0.0 0.00 0.18 0.18 94 1011.3
20240519201026 56 0 0.0 0.0 0.00 0.18 0.18 94 1011.1
20240519200503 56 0 0.0 0.0 0.00 0.18 0.18 94 1011.3
20240519200003 56 0 0.0 0.0 0.00 0.18 0.18 94 1011.2
20240519195503 56 0 0.0 0.0 0.00 0.18 0.18 94 1011.2
20240519195025 56 195 0.0 1.0 0.00 0.18 0.18 93 1011.2
20240519194504 56 199 0.0 1.0 0.00 0.18 0.18 93 1011.3
20240519194024 56 158 0.0 1.0 0.00 0.18 0.18 93 1011.1
20240519193525 56 90 0.0 1.0 0.00 0.18 0.18 93 1011.0
20240519193003 56 293 0.0 1.0 0.00 0.18 0.18 93 1011.1
20240519192505 56 296 0.0 1.0 0.00 0.18 0.18 93 1011.1
20240519192004 56 321 0.0 1.0 0.00 0.18 0.18 93 1011.2
20240519191505 56 357 0.0 1.0 0.00 0.18 0.18 92 1010.9
20240519191005 57 38 0.0 1.0 0.00 0.18 0.18 92 1010.8
20240519190504 57 303 0.0 1.0 0.00 0.18 0.18 92 1010.8
20240519190004 57 292 0.0 2.0 0.00 0.18 0.18 92 1011.1
20240519185503 57 301 0.0 2.0 0.00 0.18 0.18 92 1010.9
20240519185003 58 257 0.0 1.0 0.00 0.18 0.18 92 1010.9
20240519184524 58 31 0.0 2.0 0.00 0.18 0.18 92 1010.9
20240519184003 58 16 0.0 2.0 0.00 0.18 0.18 92 1010.7
20240519183504 58 354 0.0 2.0 0.00 0.18 0.18 92 1010.8
20240519183003 59 328 0.0 2.0 0.00 0.18 0.18 92 1010.7
20240519182503 59 310 0.0 2.0 0.00 0.18 0.18 92 1010.8
20240519182003 59 284 0.0 2.0 0.00 0.18 0.18 92 1010.8
20240519181525 59 293 0.0 2.0 0.00 0.18 0.18 91 1010.7
20240519181003 60 13 0.0 2.0 0.00 0.18 0.18 91 1010.6
20240519180503 60 360 0.0 2.0 0.00 0.18 0.18 91 1010.5
20240519180005 60 343 0.0 2.0 0.00 0.18 0.18 91 1010.6
20240519175503 60 343 0.0 2.0 0.00 0.18 0.18 91 1010.9
20240519175003 60 4 0.0 2.0 0.00 0.18 0.18 91 1010.4
20240519174503 61 156 1.0 4.0 0.00 0.18 0.18 91 1010.7
20240519174004 61 148 3.0 5.0 0.00 0.18 0.18 91 1010.3
20240519173503 61 140 3.0 5.0 0.00 0.18 0.18 92 1010.6
20240519173004 61 146 4.0 6.0 0.00 0.18 0.18 92 1010.3
20240519172504 61 155 4.0 6.0 0.00 0.18 0.18 93 1010.2
20240519172026 61 159 4.0 6.0 0.00 0.18 0.18 94 1010.2
20240519171504 60 162 2.0 4.0 0.00 0.18 0.18 94 1010.3
20240519171005 60 155 2.0 4.0 0.00 0.18 0.18 94 1010.2
20240519170525 60 153 2.0 4.0 0.00 0.18 0.18 94 1010.2
20240519170003 60 161 2.0 4.0 0.00 0.18 0.18 94 1010.0
20240519165025 60 162 1.0 4.0 0.02 0.18 0.18 93 1010.0
20240519164504 59 152 0.0 2.0 0.04 0.18 0.18 93 1010.1
20240519163004 59 174 2.0 6.0 0.07 0.18 0.18 92 1010.7
20240519161504 58 173 1.0 4.0 0.11 0.18 0.18 91 1010.7
20240519161003 58 178 2.0 4.0 0.12 0.18 0.18 91 1010.7
20240519160504 58 178 3.0 4.0 0.13 0.18 0.18 89 1010.8
20240519160004 58 178 1.0 4.0 0.14 0.18 0.18 89 1011.1
20240519155503 58 186 0.0 2.0 0.13 0.17 0.17 88 1011.1
20240519155003 58 146 0.0 2.0 0.12 0.15 0.15 88 1010.9
20240519154503 58 146 0.0 2.0 0.11 0.14 0.14 87 1011.1
20240519154004 58 166 0.0 2.0 0.09 0.13 0.13 86 1011.2
20240519153504 58 145 0.0 2.0 0.08 0.12 0.12 85 1011.5
20240519153005 58 143 0.0 2.0 0.07 0.11 0.11 84 1011.2
20240519152505 58 116 1.0 2.0 0.06 0.09 0.09 83 1011.4
20240519152004 58 12 0.0 2.0 0.05 0.08 0.08 82 1011.3
20240519151503 58 46 0.0 2.0 0.04 0.07 0.07 81 1011.3
20240519151004 59 131 0.0 2.0 0.02 0.06 0.07 80 1011.5
20240519150503 59 135 1.0 2.0 0.01 0.05 0.05 79 1011.4
20240519150005 60 151 1.0 4.0 0.00 0.04 0.04 77 1011.4
20240519145504 60 158 4.0 11.0 0.00 0.04 0.04 76 1011.5
20240519145025 61 169 7.0 16.0 0.00 0.04 0.04 76 1011.2
20240519144504 62 171 9.0 16.0 0.00 0.04 0.04 76 1011.4
20240519144025 62 168 5.0 15.0 0.00 0.04 0.04 80 1011.5
20240519143504 62 301 0.0 2.0 0.00 0.04 0.04 77 1011.3
20240519143024 63 340 0.0 2.0 0.00 0.04 0.04 76 1011.0
20240519142503 63 348 0.0 1.0 0.00 0.04 0.04 76 1011.1
20240519142024 63 359 0.0 4.0 0.00 0.04 0.04 75 1010.8
20240519141505 63 338 1.0 4.0 0.00 0.04 0.04 75 1010.8
20240519141004 64 274 1.0 4.0 0.00 0.04 0.04 72 1011.0
20240519140503 64 280 1.0 2.0 0.00 0.04 0.04 71 1010.7
20240519140003 64 344 1.0 3.0 0.00 0.04 0.04 71 1010.7
20240519135503 65 341 1.0 3.0 0.00 0.04 0.04 71 1010.8
20240519135003 65 357 0.0 3.0 0.00 0.04 0.04 70 1010.8
20240519134504 66 28 1.0 4.0 0.00 0.04 0.04 69 1011.0
20240519134004 67 321 2.0 4.0 0.00 0.04 0.04 65 1011.0
20240519133503 67 310 2.0 6.0 0.00 0.04 0.04 62 1011.1
20240519133005 68 62 2.0 10.0 0.00 0.04 0.04 61 1011.0
20240519132503 70 60 2.0 10.0 0.00 0.04 0.04 61 1011.0
20240519132005 70 20 2.0 8.0 0.00 0.04 0.04 62 1010.8
20240519131505 70 16 2.0 8.0 0.00 0.04 0.04 61 1011.0
20240519131004 70 49 2.0 6.0 0.00 0.04 0.04 61 1011.0
20240519130504 71 21 2.0 6.0 0.00 0.04 0.04 63 1011.2
20240519130004 70 325 2.0 5.0 0.00 0.04 0.04 64 1011.2
20240519125503 70 39 2.0 8.0 0.00 0.04 0.04 63 1011.3
20240519125004 70 52 3.0 8.0 0.00 0.04 0.04 61 1011.4
20240519124526 72 21 3.0 8.0 0.00 0.04 0.04 61 1011.2
20240519124025 73 26 2.0 7.0 0.00 0.04 0.04 60 1011.3
20240519123503 73 52 1.0 5.0 0.00 0.04 0.04 60 1011.3
20240519123004 73 27 1.0 4.0 0.00 0.04 0.04 62 1011.4
20240519122503 73 351 2.0 4.0 0.02 0.04 0.04 60 1011.4
20240519122004 72 347 2.0 4.0 0.02 0.04 0.04 61 1011.6
20240519121503 73 335 1.0 3.0 0.02 0.04 0.04 62 1011.4
20240519121004 73 313 0.0 3.0 0.02 0.04 0.04 62 1011.6
20240519120525 71 17 0.0 2.0 0.02 0.04 0.04 71 1011.5
20240519120004 71 42 0.0 2.0 0.02 0.04 0.04 71 1012.0
20240519115505 70 103 0.0 2.0 0.04 0.04 0.04 72 1011.8
20240519115005 69 165 1.0 2.0 0.04 0.04 0.04 73 1011.9
20240519114503 67 289 1.0 2.0 0.04 0.04 0.04 77 1011.9
20240519114003 64 342 1.0 2.0 0.04 0.04 0.04 76 1012.0
20240519113504 63 347 1.0 4.0 0.04 0.04 0.04 80 1012.1
20240519113003 61 162 2.0 6.0 0.04 0.04 0.04 78 1012.0
20240519112503 61 169 4.0 11.0 0.01 0.01 0.01 77 1012.3
20240519112004 62 173 7.0 13.0 0.01 0.01 0.01 76 1012.2
20240519111504 63 167 7.0 13.0 0.01 0.01 0.01 77 1012.2
20240519111003 63 156 3.0 10.0 0.01 0.01 0.01 76 1012.1
20240519110503 64 166 1.0 4.0 0.01 0.01 0.01 71 1012.0
20240519110004 65 183 3.0 9.0 0.01 0.01 0.01 69 1011.9
20240519105503 66 172 5.0 11.0 0.00 0.00 0.00 65 1011.9
20240519105003 69 167 5.0 11.0 0.00 0.00 0.00 56 1011.8
20240519104525 71 174 3.0 7.0 0.00 0.00 0.00 51 1012.0
20240519104003 71 158 1.0 4.0 0.00 0.00 0.00 51 1011.9
20240519103504 72 164 2.0 6.0 0.00 0.00 0.00 50 1011.8
20240519103003 72 180 3.0 8.0 0.00 0.00 0.00 48 1011.9
20240519102503 72 176 3.0 8.0 0.00 0.00 0.00 44 1012.0
20240519102024 73 197 1.0 4.0 0.00 0.00 0.00 45 1011.9
20240519101524 72 182 2.0 6.0 0.00 0.00 0.00 45 1011.8
20240519101003 72 162 1.0 6.0 0.00 0.00 0.00 45 1011.9
20240519100503 73 163 0.0 4.0 0.00 0.00 0.00 43 1012.0
20240519100004 73 162 1.0 4.0 0.00 0.00 0.00 43 1012.0
20240519095524 73 184 1.0 4.0 0.00 0.00 0.00 42 1012.1
20240519095024 74 206 1.0 2.0 0.00 0.00 0.00 42 1012.1
20240519094524 75 191 3.0 8.0 0.00 0.00 0.00 41 1012.2
20240519094003 76 175 4.0 8.0 0.00 0.00 0.00 40 1011.8
20240519093504 78 148 2.0 5.0 0.00 0.00 0.00 38 1012.1
20240519093003 79 135 2.0 5.0 0.00 0.00 0.00 40 1011.9
20240519092524 78 143 4.0 11.0 0.00 0.00 0.00 40 1012.0
20240519092003 78 159 6.0 11.0 0.00 0.00 0.00 40 1012.2
20240519091503 77 170 6.0 11.0 0.00 0.00 0.00 40 1012.3
20240519091024 76 164 4.0 8.0 0.00 0.00 0.00 40 1012.1
20240519090504 75 157 5.0 8.0 0.00 0.00 0.00 42 1012.3
20240519090004 74 153 4.0 8.0 0.00 0.00 0.00 41 1012.2
20240519085505 76 152 3.0 8.0 0.00 0.00 0.00 41 1012.3
20240519085026 73 171 5.0 10.0 0.00 0.00 0.00 44 1012.3
20240519084505 72 178 6.0 10.0 0.00 0.00 0.00 46 1012.5
20240519084026 72 170 5.0 9.0 0.00 0.00 0.00 43 1012.3
20240519083505 75 152 4.0 7.0 0.00 0.00 0.00 41 1012.3
20240519083005 74 162 3.0 7.0 0.00 0.00 0.00 41 1012.2
20240519082505 75 171 2.0 5.0 0.00 0.00 0.00 40 1012.4
20240519082005 76 167 2.0 5.0 0.00 0.00 0.00 42 1012.0
20240519081505 75 155 3.0 5.0 0.00 0.00 0.00 41 1012.5
20240519081026 74 29 3.0 5.0 0.00 0.00 0.00 40 1012.2
20240519080526 74 11 2.0 4.0 0.00 0.00 0.00 41 1012.3
20240519080005 74 186 1.0 4.0 0.00 0.00 0.00 41 1012.3
20240519075505 74 168 2.0 7.0 0.00 0.00 0.00 43 1012.5
20240519075005 73 161 2.0 7.0 0.00 0.00 0.00 42 1012.3
20240519074527 73 171 3.0 5.0 0.00 0.00 0.00 43 1012.5
20240519074005 73 174 3.0 5.0 0.00 0.00 0.00 45 1012.4
20240519073506 72 173 2.0 4.0 0.00 0.00 0.00 49 1012.5
20240519073005 72 174 2.0 4.0 0.00 0.00 0.00 43 1012.5
20240519072505 72 165 2.0 5.0 0.00 0.00 0.00 48 1012.5
20240519072004 72 157 2.0 5.0 0.00 0.00 0.00 49 1012.5
20240519071505 72 167 2.0 3.0 0.00 0.00 0.00 50 1012.5
20240519071005 71 170 1.0 3.0 0.00 0.00 0.00 52 1012.4